Torna al catalogo

COSMOS 2418

GLONASS

AttivoNavigazioneMEO
NORAD 28916·PAYLOAD·🇷🇺 Russia

Lanciato Dec 25, 2005 da Baikonur Cosmodrome

Loading…

Prossimi Passaggi (prossime 24 ore)

TLE

AggiornatoSource: Space-Track

Epoca: Sep 14, 2026, 07:56 UTC

1 28916U 05050B   26257.33105825 -.00000055  00000-0  00000-0 0  9996
2 28916  65.5369 313.2796 0013275 274.5121  86.4456  2.13106224161162

Traccia COSMOS 2418 in tempo reale con AllMySat

Download on the App Store